{"data":{"norad_id":60524,"intl_designator":"2024-149BJ","name":"CONNECTA IOT-4","alt_names":[],"object_type":"PAYLOAD","status":"ACTIVE","operator":null,"country":"TURK","launch_date":"2024-08-16","launch_site_code":"AFWTR","launch_vehicle":null,"mission":null,"orbit_class":"UNKNOWN","rcs_meters":null,"size_class":null,"mass_kg":null,"dimensions":null,"purposes":[],"wikipedia_slug":null,"has_3d_model":false,"image_url":null,"decayed_at":null,"tle_current":{"epoch":"2026-05-25T05:32:05.116128Z","epoch_age_seconds":49057,"freshness":"FRESH","line1":"1 60524U 24149BJ  26145.23061477  .00018386  00000+0  44471-3 0  9993","line2":"2 60524  97.3797 229.3456 0005116  28.1817 331.9706 15.41175207 98797","mean_motion":15.41175207,"eccentricity":0.0005116,"inclination_deg":97.3797,"raan_deg":229.3456,"arg_perigee_deg":28.1817,"mean_anomaly_deg":331.9706,"bstar":0.00044471,"rev_number":9879,"period_min":93.435191109975,"perigee_km":439.15019590427,"apogee_km":446.1292146291,"semimajor_km":6820.7767052667,"source":"CELESTRAK","updated_at":"2026-05-25T13:38:02.124775Z"}}}